User: anonymous   Login
Location: Astronight Observatory
(42.6003°N, 71.2981°W)
Time: 03:04:07
(UTC-04:00)
Language:

DELTA 2 R/B (1) - Orbit

View from above orbital plane
View from above orbital plane
View from above satellite
View from above satellite

Ground track
Ground track

The orbit data is extracted from the following two-line orbital elements,

1 27665U 03005C   17118.90837514 -.00000070 +00000-0 +59561-5 0  9998
2 27665 039.5772 001.1818 0009582 301.1813 125.7725 14.28442152743793
Epoch (UTC): 28 April 2017 21:48:03
Eccentricity: 0.0009582
inclination: 39.5772°
perigee height: 790 km
apogee height: 804 km
right ascension of ascending node: 1.1818°
argument of perigee: 301.1813°
revolutions per day: 14.28442152
mean anomaly at epoch: 125.7725°
orbit number at epoch: 74379

The dashed part of the orbit path shows where the satellite is in the earth's shadow,  

DLR